#timestamp,LO_Frequency,Hit,StdDev 
1634490015.2,286047000.3,N
1634490035.1,286046999.4,N
1634490036.0,286046999.4,N
1634490055.8,286046998.9,N
1634490075.6,286047002.2,N
1634490095.5,286047000.8,N
1634490115.3,286046996.7,N
1634490135.1,286047001.1,N
1634490155.9,286047002.2,N
1634490175.7,286047001.6,N
1634490195.6,286047003.8,N
1634490215.4,286047003.9,N
1634490235.2,286047001.4,N
1634490255.1,286046999.9,N
1634490256.0,286046999.9,N
1634490275.8,286046998.7,N
1634490295.7,286046997.3,N
1634490315.5,286046999.1,N
1634490335.3,286046996.9,N
1634490355.2,286046995.0,N
1634490375.9,286046998.7,N
1634490395.7,286047002.7,N
1634490445.6,286046999.7,E
1634490455.5,286047002.0,N
1634490475.4,286047005.9,P
1634490495.2,286047006.0,P
1634490515.0,286047002.9,N
1634490515.9,286047002.9,N
1634490535.8,286047003.5,N
1634490555.6,286047004.3,N
1634490575.5,286047000.1,N
1634490595.3,286046999.9,N
1634490615.1,286047000.6,N
1634490635.9,286047002.0,N
1634490655.7,286047000.5,N
1634490675.5,286046998.1,N
1634490695.4,286047002.6,N
1634490715.2,286047004.2,N
1634490735.1,286047004.3,N
1634490736.0,286047004.3,N
1634490755.8,286047001.2,N
1634490775.6,286046998.4,N
1634490795.5,286046997.0,N
1634490815.3,286046997.6,N
1634490835.2,286046995.9,N
1634490855.9,286046994.2,N
1634490875.7,286046993.8,N
1634490895.6,286046997.6,N
1634490915.4,286046997.8,N
1634490935.2,286046997.8,N
1634490955.1,286046997.7,N
1634490956.0,286046997.7,N
1634490975.8,286046993.8,N
1634490995.7,286046992.2,N
1634491015.5,286046990.4,N
1634491035.3,286046994.7,N
1634491055.2,286046996.4,N
1634491075.0,286046991.9,N
1634491075.9,286046991.9,N
1634491095.8,286046992.4,N
1634491115.6,286046994.8,N
1634491135.4,286046992.4,N
1634491155.3,286046992.8,N
1634491175.1,286046990.7,N
1634491195.8,286046988.6,N
1634491215.7,286046990.6,N
1634491235.5,286046992.7,N
1634491255.4,286046992.5,N
1634491275.2,286046991.4,N
1634491295.0,286046989.7,N
1634491295.9,286046989.7,Y
1634491315.8,286046992.1,P
1634491335.6,286046995.9,P
1634491355.4,286046995.8,N
1634491375.3,286046993.9,Y
1634491395.1,286047000.5,P
1634491415.9,286047000.5,N
1634491435.7,286047001.6,N
1634491455.5,286047003.9,N
1634491475.4,286047003.9,N
1634491495.2,286047000.1,N
1634491515.0,286046999.3,N
1634491515.9,286046999.3,N
1634491535.8,286047000.0,N
1634491555.6,286047000.4,N
1634491575.5,286047001.0,N
1634491595.3,286046997.2,N
1634491615.1,286046999.6,N
1634491635.9,286046996.5,N
1634491655.7,286046997.3,N
1634491675.5,286046999.3,N
1634491695.4,286046998.8,N
1634491715.2,286047002.9,N
1634491735.1,286047002.9,N
1634491736.0,286047002.9,N
1634491755.8,286047003.0,N
1634491775.6,286047006.7,N
1634491795.5,286047005.5,N
1634491815.3,286047003.3,N
1634491835.1,286047003.2,N
1634491855.9,286047003.2,N
1634491875.7,286047004.7,N
1634491895.6,286047004.7,N
1634491915.4,286047008.4,N
1634491935.2,286047011.9,Y
1634491955.1,286047012.0,P
1634491956.0,286047012.0,N
1634491975.8,286047011.6,N
1634491995.7,286047011.7,N
1634492015.5,286047010.7,N
1634492035.3,286047009.0,N
1634492055.2,286047008.6,N
1634492075.9,286047009.0,N
1634492095.7,286047012.3,Y
1634492115.6,286047002.8,P
1634492135.4,286047001.0,N
1634492155.3,286046998.9,N
1634492175.1,286046999.9,N
1634492176.0,286046999.9,N
1634492195.8,286046999.9,N
1634492215.7,286046999.4,N
1634492235.5,286046998.6,N
1634492255.3,286046999.4,N
1634492275.2,286047001.0,N
1634492295.0,286047000.1,N
1634492295.9,286047000.1,N
1634492315.8,286046998.2,N
1634492335.6,286046999.0,N
1634492355.4,286046999.6,N
1634492375.3,286046995.9,N
1634492395.1,286046996.2,N
1634492415.8,286046995.7,N
1634492435.7,286046993.3,N
1634492455.5,286046996.2,N
1634492475.4,286046994.0,N
1634492495.2,286046994.4,N
1634492515.0,286046994.0,N
1634492515.9,286046994.0,N
1634492535.8,286046993.8,N
1634492555.6,286046992.1,N
1634492575.4,286046992.1,N
1634492595.3,286046993.8,N
1634492615.1,286046993.3,N
1634492635.9,286046993.7,N
1634492655.7,286046995.4,N
1634492675.5,286046997.5,N
1634492695.4,286046995.5,N
1634492715.2,286046997.6,N
1634492735.0,286046998.1,N
1634492736.0,286046998.1,N
1634492755.8,286046999.3,N
1634492775.6,286046996.5,N
1634492795.5,286046999.4,N
1634492815.3,286047000.3,N
1634492835.1,286047004.3,N
1634492855.9,286047003.8,N
1634492875.7,286047004.4,N
1634492895.6,286047001.5,N
1634492915.4,286047002.3,N
1634492935.2,286047001.8,N
1634492955.1,286046998.1,N
1634492956.0,286046998.1,N
1634492975.8,286046998.7,N
1634492995.6,286046999.3,N
1634493015.5,286046999.0,N
1634493035.3,286047000.9,N
1634493055.2,286046998.5,N
1634493075.9,286046999.3,N
1634493095.7,286047001.2,N
1634493115.6,286047000.2,N
1634493135.4,286047002.3,N
1634493155.3,286047002.5,N
1634493175.1,286047002.0,N
1634493176.0,286047002.0,N
1634493195.8,286047001.8,N
1634493215.7,286047004.1,N
1634493235.5,286047000.0,N
1634493255.3,286047000.3,N
1634493275.2,286047005.1,N
1634493295.0,286047001.9,N
1634493295.9,286047001.9,N
1634493315.8,286047002.5,N
1634493335.6,286047003.3,N
1634493355.4,286047003.8,N
1634493375.3,286047005.6,N
1634493395.1,286047005.7,N
1634493415.8,286047003.3,N
1634493435.7,286047003.5,N
1634493455.5,286047005.2,N
1634493475.4,286047008.0,Y
1634493495.2,286047007.3,P
1634493515.0,286047004.8,N
1634493515.9,286047004.8,N
1634493535.8,286047003.7,N
1634493555.6,286047001.4,N
1634493575.4,286047004.3,N
1634493595.3,286047003.1,N
